UAL2743 KLAX-KEWR

Flight info

Callsign UAL2743
Flight time N/A
Altitude 35000
Route ORCKA5 LAS J146 DVC HBU MCK OVR/N0447F370 DSM EVOTE NELLS KEEHO J584 SLT FQM3
Aircraft B738/M-SDE2E3FGHIRWXY/LB1

Departure

Time 2026-04-23 08:54
Airport Los Angeles International Airport (KLAX)

Arrival

Time N/A
Airport Newark Liberty International Airport (KEWR)
Time Latitude Longitude Altitude Speed Heading
2026-04-23 08:28 33.94108 -118.40269 94 ft 0 kts 84°
2026-04-23 08:43 33.94108 -118.40270 94 ft 1 kts 83°
2026-04-23 08:43 33.94107 -118.40286 95 ft 3 kts 88°
2026-04-23 08:43 33.94108 -118.40309 94 ft 3 kts 117°
2026-04-23 08:43 33.94119 -118.40324 94 ft 3 kts 157°
2026-04-23 08:44 33.94139 -118.40330 94 ft 3 kts 173°
2026-04-23 08:44 33.94149 -118.40331 93 ft 1 kts 173°
2026-04-23 08:44 33.94150 -118.40331 93 ft 1 kts 173°
2026-04-23 08:47 33.94117 -118.40326 94 ft 10 kts 173°
2026-04-23 08:47 33.94014 -118.40310 97 ft 19 kts 168°
2026-04-23 08:47 33.93929 -118.40343 97 ft 13 kts 252°
2026-04-23 08:47 33.93915 -118.40452 97 ft 13 kts 263°
2026-04-23 08:48 33.93905 -118.40558 97 ft 13 kts 264°
2026-04-23 08:48 33.93893 -118.40661 98 ft 12 kts 258°
2026-04-23 08:48 33.93880 -118.40761 96 ft 12 kts 262°
2026-04-23 08:48 33.93872 -118.40868 96 ft 15 kts 263°
2026-04-23 08:49 33.93856 -118.41023 96 ft 20 kts 262°
2026-04-23 08:49 33.93895 -118.41168 97 ft 21 kts 349°
2026-04-23 08:49 33.94052 -118.41189 95 ft 24 kts 352°
2026-04-23 08:49 33.94225 -118.41214 95 ft 26 kts 353°
2026-04-23 08:50 33.94409 -118.41243 95 ft 28 kts 352°
2026-04-23 08:50 33.94601 -118.41270 96 ft 29 kts 353°
2026-04-23 08:50 33.94778 -118.41274 98 ft 21 kts 40°
2026-04-23 08:50 33.94809 -118.41111 99 ft 20 kts 84°
2026-04-23 08:51 33.94825 -118.40947 99 ft 19 kts 82°
2026-04-23 08:51 33.94842 -118.40787 99 ft 19 kts 82°
2026-04-23 08:51 33.94859 -118.40634 99 ft 18 kts 82°
2026-04-23 08:51 33.94875 -118.40474 99 ft 22 kts 83°
2026-04-23 08:52 33.94896 -118.40286 99 ft 23 kts 83°
2026-04-23 08:52 33.94916 -118.40102 101 ft 19 kts 70°
2026-04-23 08:52 33.95018 -118.40092 108 ft 13 kts 302°
2026-04-23 08:52 33.95022 -118.40141 108 ft 0 kts 263°
2026-04-23 08:53 33.95022 -118.40145 108 ft 1 kts 263°
2026-04-23 08:53 33.95021 -118.40149 108 ft 7 kts 263°
2026-04-23 08:53 33.94983 -118.40535 108 ft 85 kts 263°
2026-04-23 08:53 33.94881 -118.41507 107 ft 149 kts 263°
2026-04-23 08:54 33.94751 -118.42867 401 ft 163 kts 262°
2026-04-23 08:54 33.94585 -118.44272 494 ft 182 kts 260°
2026-04-23 08:54 33.94397 -118.45852 1336 ft 189 kts 264°
2026-04-23 08:54 33.94240 -118.47429 2313 ft 202 kts 259°
2026-04-23 08:55 33.93478 -118.48972 2589 ft 234 kts 218°
2026-04-23 08:55 33.91901 -118.49657 2852 ft 258 kts 180°
2026-04-23 08:55 33.90170 -118.49019 3359 ft 268 kts 142°
2026-04-23 08:55 33.88972 -118.47317 4079 ft 270 kts 112°
2026-04-23 08:56 33.88697 -118.45106 4808 ft 271 kts 78°
2026-04-23 08:56 33.89486 -118.43071 5478 ft 272 kts 44°
2026-04-23 08:56 33.91040 -118.41884 6210 ft 269 kts 18°
2026-04-23 08:56 33.92768 -118.40990 6935 ft 274 kts 25°
2026-04-23 08:57 33.94390 -118.39722 7615 ft 282 kts 34°
2026-04-23 08:57 33.95858 -118.38115 8278 ft 289 kts 43°
2026-04-23 08:57 33.97185 -118.36249 8958 ft 296 kts 48°
2026-04-23 08:57 33.98087 -118.34795 9454 ft 300 kts 50°
2026-04-23 08:58 33.99298 -118.32715 10112 ft 306 kts 51°
2026-04-23 08:58 34.00535 -118.30543 10398 ft 325 kts 51°
2026-04-23 08:58 34.01854 -118.28212 10557 ft 347 kts 51°
2026-04-23 08:58 34.03251 -118.25747 10810 ft 364 kts 52°
2026-04-23 08:59 34.04691 -118.23200 11301 ft 371 kts 52°
2026-04-23 08:59 34.06137 -118.20641 11899 ft 376 kts 52°
2026-04-23 08:59 34.07617 -118.18018 12514 ft 380 kts 51°
2026-04-23 08:59 34.09114 -118.15370 13107 ft 384 kts 51°
2026-04-23 09:00 34.10113 -118.13601 13495 ft 387 kts 51°
2026-04-23 09:00 34.11646 -118.10889 14054 ft 392 kts 51°
2026-04-23 09:00 34.13191 -118.08152 14587 ft 396 kts 51°
2026-04-23 09:00 34.14755 -118.05379 15111 ft 401 kts 51°
2026-04-23 09:01 34.16317 -118.02608 15647 ft 405 kts 51°
2026-04-23 09:01 34.17922 -117.99758 16191 ft 409 kts 51°
2026-04-23 09:01 34.19532 -117.96898 16692 ft 414 kts 51°
2026-04-23 09:01 34.21162 -117.93997 17204 ft 419 kts 51°
2026-04-23 09:02 34.22806 -117.91069 17687 ft 423 kts 51°
2026-04-23 09:02 34.24467 -117.88110 18182 ft 427 kts 51°
2026-04-23 09:02 34.26141 -117.85121 18620 ft 431 kts 51°
2026-04-23 09:02 34.27827 -117.82109 19083 ft 434 kts 51°
2026-04-23 09:03 34.29505 -117.79110 19544 ft 438 kts 51°
2026-04-23 09:03 34.31215 -117.76051 19996 ft 440 kts 51°
2026-04-23 09:03 34.32941 -117.72962 20372 ft 444 kts 51°
2026-04-23 09:03 34.34690 -117.69831 20791 ft 448 kts 51°
2026-04-23 09:04 34.36454 -117.66725 21285 ft 449 kts 50°
2026-04-23 09:04 34.38262 -117.63675 21653 ft 452 kts 49°
2026-04-23 09:04 34.40123 -117.60592 22058 ft 455 kts 49°
2026-04-23 09:04 34.42001 -117.57492 22473 ft 458 kts 49°
2026-04-23 09:05 34.43885 -117.54371 22876 ft 461 kts 49°
2026-04-23 09:05 34.45781 -117.51214 23279 ft 465 kts 49°
2026-04-23 09:05 34.47683 -117.48033 23673 ft 468 kts 49°
2026-04-23 09:05 34.49604 -117.44808 24002 ft 471 kts 49°
2026-04-23 09:06 34.51522 -117.41580 24333 ft 473 kts 49°
2026-04-23 09:06 34.53448 -117.38333 24641 ft 476 kts 49°
2026-04-23 09:06 34.55387 -117.35061 24960 ft 479 kts 49°
2026-04-23 09:06 34.57339 -117.31765 25278 ft 481 kts 49°
2026-04-23 09:07 34.59301 -117.28450 25581 ft 484 kts 49°
2026-04-23 09:07 34.61240 -117.25171 25863 ft 486 kts 49°
2026-04-23 09:07 34.63218 -117.21823 26153 ft 489 kts 49°
2026-04-23 09:07 34.65208 -117.18452 26435 ft 492 kts 49°
2026-04-23 09:08 34.67206 -117.15065 26712 ft 494 kts 49°
2026-04-23 09:08 34.69209 -117.11665 26983 ft 496 kts 49°
2026-04-23 09:08 34.71229 -117.08233 27245 ft 499 kts 49°
2026-04-23 09:08 34.73252 -117.04791 27506 ft 501 kts 49°
2026-04-23 09:09 34.75281 -117.01337 27775 ft 503 kts 49°
2026-04-23 09:09 34.77329 -116.97849 28040 ft 506 kts 49°
2026-04-23 09:09 34.79351 -116.94398 28304 ft 508 kts 49°
2026-04-23 09:09 34.81411 -116.90881 28566 ft 510 kts 49°
2026-04-23 09:10 34.83479 -116.87347 28830 ft 512 kts 49°
2026-04-23 09:10 34.87627 -116.80245 29312 ft 516 kts 49°
2026-04-23 09:10 34.89711 -116.76674 29548 ft 518 kts 49°
2026-04-23 09:11 34.91818 -116.73082 29771 ft 520 kts 48°
2026-04-23 09:11 34.94108 -116.69692 29974 ft 517 kts 42°
2026-04-23 09:11 34.96533 -116.66465 30232 ft 516 kts 40°
2026-04-23 09:11 34.99003 -116.63294 30518 ft 515 kts 40°
2026-04-23 09:12 35.01445 -116.60181 30810 ft 514 kts 40°
2026-04-23 09:12 35.03908 -116.57021 31065 ft 514 kts 40°
2026-04-23 09:12 35.06359 -116.53842 31304 ft 515 kts 40°
2026-04-23 09:12 35.08812 -116.50628 31556 ft 515 kts 41°
2026-04-23 09:13 35.11241 -116.47422 31812 ft 515 kts 41°
2026-04-23 09:13 35.13669 -116.44204 32077 ft 514 kts 41°
2026-04-23 09:13 35.16088 -116.40992 32351 ft 513 kts 41°
2026-04-23 09:13 35.18512 -116.37773 32551 ft 514 kts 41°
2026-04-23 09:14 35.20936 -116.34552 32771 ft 515 kts 41°
2026-04-23 09:14 35.23359 -116.31329 33050 ft 514 kts 40°
2026-04-23 09:14 35.25775 -116.28116 33314 ft 513 kts 40°
2026-04-23 09:14 35.28190 -116.24901 33539 ft 513 kts 40°
2026-04-23 09:15 35.30604 -116.21685 33756 ft 513 kts 40°
2026-04-23 09:15 35.32985 -116.18509 34059 ft 511 kts 40°
2026-04-23 09:15 35.35389 -116.15300 34220 ft 512 kts 40°
2026-04-23 09:15 35.37798 -116.12083 34348 ft 513 kts 40°
2026-04-23 09:16 35.40217 -116.08851 34513 ft 514 kts 40°
2026-04-23 09:16 35.42632 -116.05618 34682 ft 514 kts 40°
2026-04-23 09:16 35.45049 -116.02379 34837 ft 515 kts 40°
2026-04-23 09:16 35.47469 -115.99132 34987 ft 516 kts 40°
2026-04-23 09:17 35.49893 -115.95877 35011 ft 517 kts 40°
2026-04-23 09:17 35.54746 -115.89349 35031 ft 516 kts 40°
2026-04-23 09:18 35.59579 -115.82835 35032 ft 515 kts 40°